SCP
1 1 1 1 1 1 1 0 0 0 1 0 0 0 0 0 0 0 0 1 1 1 1 1 1 1 1 1 1 1 1 1 1 1 1 1 1 0 0 0 0 0 0
1 1 1 1 1 1 0 0 0 0 0 0 0 0 0 0 0 0 0 1 1 1 1 1 1 1 1 1 1 1 1 1 1 1 1 1 1 0 0 0 0 0 0
1 1 1 1 1 1 1 1 0 0 0 0 0 0 0 0 0 0 0 1 1 1 1 1 1 1 1 1 1 1 1 1 1 1 1 1 1 1 0 0 0 0 0
1 1 1 1 1 1 1 1 0 0 1 1 1 1 0 0 0 0 1 1 1 1 1 1 1 1 1 1 1 1 1 1 1 1 1 1 1 1 0 0 0 1 1
1 1 2 2 2 1 1 1 1 1 1 1 1 1 1 0 1 1 1 1 1 1 1 1 1 1 1 1 1 1 1 1 1 1 1 1 1 1 1 1 1 1 1
1 1 2 2 2 1 1 1 1 1 1 1 1 1 0 1 1 1 1 1 1 1 1 1 1 1 1 1 1 1 1 1 1 1 1 1 1 1 1 1 1 1 1
1 1 1 1 1 1 1 1 1 1 1 1 1 1 1 1 1 1 1 1 1 1 1 1 1 1 1 1 1 1 1 1 1 1 1 1 1 1 1 1 1 1 1
1 1 1 1 1 1 1 1 1 1 1 1 2 1 1 1 1 1 1 1 1 1 1 1 1 1 1 1 1 1 1 1 1 1 1 1 1 1 1 1 1 1 1
1 1 1 1 1 1 1 1 1 1 1 1 2 2 1 1 1 1 1 1 1 1 1 1 1 1 2 2 2 1 2 2 1 1 1 1 1 1 1 1 1 1 1
1 1 1 1 1 1 1 1 1 1 1 1 2 2 1 1 1 1 1 1 1 1 1 1 1 2 2 2 2 2 2 2 2 1 1 1 1 1 1 1 1 1 1
1 1 1 1 1 1 1 1 1 1 2 2 2 2 2 2 2 2 1 1 1 1 1 1 1 2 2 2 2 2 2 2 2 2 1 1 1 1 1 1 1 1 1
2 2 2 2 1 1 1 1 1 1 2 2 2 2 2 2 3 2 2 2 2 2 1 1 1 2 2 2 2 1 1 1 2 2 1 1 2 2 2 2 2 2 1
3 3 3 2 2 2 1 1 1 1 2 2 2 2 2 3 3 3 3 2 2 2 1 1 1 1 1 1 1 1 1 1 1 1 1 2 2 3 3 3 2 2 1
3 3 3 3 3 2 2 2 2 2 2 2 3 3 3 3 3 3 3 2 2 1 1 1 1 1 1 1 1 1 1 1 1 1 1 1 2 2 2 2 2 1 1
3 3 4 4 4 4 3 3 3 3 3 3 3 3 3 3 2 2 2 2 2 2 1 1 2 2 2 1 1 1 2 1 1 1 1 1 1 1 1 1 1 1 1
3 3 4 4 5 5 4 4 4 4 4 3 3 3 3 2 2 2 2 3 3 2 2 2 2 2 2 1 1 2 2 1 1 1 0 0 0 0 0 0 0 0 0
3 3 4 5 5 5 4 4 4 4 4 4 3 3 3 2 2 2 3 3 3 3 2 2 2 3 2 2 2 2 2 2 2 1 1 0 0 0 0 0 0 0 0
3 3 4 4 5 5 5 5 5 5 5 5 4 3 3 3 3 3 3 4 4 3 3 3 3 3 3 2 2 2 2 2 2 1 1 0 0 0 0 0 0 0 0
4 4 4 4 5 5 6 6 7 7 6 5 4 3 3 3 3 3 3 4 4 3 3 3 3 3 3 3 3 2 2 2 2 1 1 1 1 0 0 0 0 0 0
5 5 5 5 5 5 6 7 8 7 6 5 4 3 3 3 3 3 3 3 4 3 3 3 3 3 3 3 3 3 3 3 3 2 2 1 1 1 0 0 0 0 0
6 6 6 6 5 5 6 7 8 7 6 5 4 4 3 3 3 3 3 4 4 5 4 3 3 3 4 4 4 4 4 4 4 3 3 2 2 2 1 1 0 0 0
6 6 6 6 6 6 5 6 8 7 7 7 6 5 4 4 3 3 3 3 4 5 4 3 3 3 4 4 4 4 4 5 4 4 4 3 3 3 3 2 1 0 0
6 6 7 7 8 7 5 4 6 7 9 9 8 6 5 4 4 4 4 4 4 3 3 3 3 3 3 4 4 5 5 5 5 5 5 4 4 4 4 3 1 0 0
7 7 8 8 8 7 5 3 4 7 9 9 8 6 4 4 4 4 5 5 5 4 3 2 3 3 3 3 4 5 5 5 5 5 5 4 4 5 4 3 1 0 0
7 8 8 7 7 6 5 2 3 5 7 7 6 5 4 4 3 3 4 5 6 6 4 2 2 2 2 2 3 4 5 5 5 4 4 4 5 5 4 3 2 1 0
7 8 8 7 6 6 4 2 2 4 6 6 5 4 4 3 2 2 3 4 5 6 5 3 2 2 2 1 2 4 5 5 4 4 4 4 5 5 4 3 3 2 1
Wind_Speed
4 5 4 4 4 4 5 4 4 4 3 4 3 3 2 2 2 2 4 9 8 8 9 9 9 10 10 10 10 10 10 10 9 9 10 10 10 11 10 10 10 10 10
4 4 5 4 4 4 4 3 4 4 3 3 3 3 3 3 3 3 3 7 10 10 10 10 10 11 11 11 11 11 11 11 11 11 11 11 11 11 11 11 11 11 10
5 5 4 4 4 4 5 4 4 3 3 3 3 3 3 3 3 4 4 3 6 10 11 10 10 10 11 11 12 12 12 12 11 11 12 11 11 11 12 12 12 11 10
5 4 4 4 4 4 4 4 4 3 3 3 2 3 2 3 4 4 4 4 4 4 9 11 10 10 11 11 12 12 13 13 12 12 12 12 12 12 12 12 11 11 10
6 5 4 4 5 4 4 4 3 3 3 2 2 3 3 3 3 5 4 5 4 4 4 9 11 10 11 11 12 12 12 12 13 13 13 13 13 13 13 12 12 12 12
6 5 5 6 5 4 4 3 3 3 3 3 3 2 3 3 3 3 4 4 4 5 5 4 6 9 12 11 11 11 12 12 13 13 13 14 14 13 13 13 13 13 13
6 6 5 6 5 4 4 5 4 5 4 3 3 3 4 4 4 3 3 3 4 4 4 4 5 4 6 12 11 11 11 12 12 13 13 14 14 14 13 13 13 13 13
6 6 5 5 5 4 5 5 5 4 3 3 3 3 3 4 4 3 3 4 4 4 5 5 5 5 5 4 6 10 10 11 12 12 12 12 13 12 13 13 13 13 13
7 6 6 5 5 5 5 5 5 6 4 4 4 3 3 2 1 3 3 3 3 3 4 3 5 5 6 4 4 8 9 9 10 10 10 10 11 11 11 12 12 13 13
7 7 7 6 6 5 5 6 6 5 5 4 4 4 4 3 3 2 3 3 3 4 4 4 4 5 5 5 4 3 6 7 8 8 8 9 9 11 11 12 12 12 13
7 7 7 6 6 5 5 5 4 5 5 5 4 4 4 4 5 4 3 2 3 3 3 4 4 3 4 5 4 3 6 7 7 7 7 8 8 9 11 11 12 12 12
6 8 8 7 7 6 6 6 5 6 5 5 5 4 4 4 4 4 5 4 3 2 2 3 4 3 3 4 3 3 4 5 6 6 6 6 7 8 10 10 11 11 10
6 7 7 7 7 6 6 6 6 6 7 6 6 5 4 5 4 4 5 5 4 3 3 3 3 3 3 2 2 4 5 5 5 5 5 5 5 5 6 7 8 9 9
5 5 7 7 7 7 7 6 6 7 6 6 7 6 5 5 5 5 5 5 5 4 4 3 2 3 2 2 1 3 3 5 5 5 5 5 5 5 5 5 5 6 6
5 6 7 7 7 7 7 6 6 6 6 7 7 7 6 5 5 5 5 5 6 6 4 3 3 2 2 2 2 3 3 5 6 5 5 5 4 4 4 4 4 4 4
5 5 6 7 7 7 7 7 6 6 6 6 5 5 6 5 4 5 5 5 6 6 5 3 2 2 2 3 3 4 3 6 7 7 6 6 5 5 5 5 5 5 5
6 6 6 6 6 7 7 6 7 7 7 6 6 7 7 6 5 5 5 5 5 6 6 5 4 3 4 4 3 4 4 5 5 8 8 7 6 6 6 5 5 5 5
7 7 6 6 7 7 6 7 7 7 7 7 7 7 7 6 6 5 5 6 5 6 7 6 5 4 5 5 4 5 5 4 3 7 9 8 7 6 6 6 6 5 5
7 6 6 7 7 6 6 7 7 7 7 7 7 7 7 6 6 5 6 6 6 6 6 6 5 3 4 4 5 5 5 4 5 5 8 9 8 7 7 7 6 6 6
6 6 6 6 6 6 6 6 6 6 6 6 6 6 6 6 6 6 6 6 6 6 6 6 5 4 4 4 4 5 4 4 4 3 3 5 7 9 9 8 8 7 7
6 6 6 6 6 6 4 5 5 6 5 5 5 5 5 4 4 4 4 4 5 6 6 6 5 5 5 4 5 4 4 4 4 4 4 4 5 6 7 9 9 8 8
5 5 5 5 5 4 1 2 5 4 4 5 5 5 4 4 5 5 4 4 4 5 6 6 5 5 5 4 4 5 5 5 4 4 4 5 4 4 4 4 6 9 9
5 5 5 5 5 3 2 3 5 5 4 4 4 4 4 3 4 5 5 6 5 5 6 6 6 6 5 4 5 6 5 5 5 3 4 5 4 5 4 4 8 9 9
4 4 4 5 5 4 4 4 5 5 4 4 4 4 4 3 3 4 4 5 5 5 6 6 6 6 5 3 4 6 5 6 6 5 5 5 4 4 4 3 9 9 9
4 4 4 4 5 4 4 4 5 5 4 4 4 4 3 3 2 3 4 5 5 4 4 5 5 4 4 4 4 5 5 6 5 4 4 5 4 4 4 4 6 10 9
3 3 3 4 4 3 3 4 5 4 3 3 3 3 3 3 2 3 4 4 4 4 4 4 5 7 7 6 7 7 6 6 5 5 3 4 4 3 3 3 3 5 6
Wind_Direction
146 140 141 147 155 148 156 160 153 152 165 182 193 185 196 199 210 214 156 171 190 205 210 208 208 210 208 206 205 208 212 212 210 208 208 211 213 214 216 216 217 217 217
141 148 151 151 152 152 150 156 157 166 182 183 199 200 215 219 201 221 206 180 191 202 209 211 213 215 214 212 212 214 215 216 215 215 215 217 218 218 219 219 222 223 221
151 158 153 160 153 151 156 168 169 179 187 189 203 216 225 234 223 225 227 216 193 195 204 211 214 215 216 217 217 217 217 217 217 217 217 220 221 221 221 221 223 224 222
167 171 165 165 159 169 174 172 187 185 189 201 208 230 230 230 229 230 227 219 219 206 197 204 213 216 219 222 224 223 221 221 220 220 220 220 222 224 225 224 223 223 223
178 183 175 164 178 181 184 192 175 194 194 202 215 221 236 239 231 231 230 228 219 225 218 185 202 214 221 226 227 229 226 224 222 224 225 224 223 223 225 224 222 223 225
185 189 181 180 194 188 189 194 182 200 212 216 237 234 241 237 230 230 233 221 216 223 229 216 204 206 214 224 228 230 232 229 226 227 228 229 227 224 223 224 223 224 226
188 195 194 177 197 195 201 197 196 197 210 208 223 235 232 222 217 213 227 234 218 221 224 224 233 233 204 206 218 228 232 232 232 229 228 227 227 225 224 224 223 224 225
194 190 195 195 192 193 201 206 209 221 218 208 231 240 232 205 199 204 205 214 229 227 225 220 225 230 252 227 193 210 225 233 237 234 226 224 225 224 224 223 221 220 220
198 203 196 203 198 206 197 207 214 221 225 220 225 245 254 243 226 181 209 214 222 237 242 238 233 230 235 241 225 197 212 225 232 235 231 225 220 219 220 222 222 222 221
199 199 203 203 208 214 200 213 210 221 228 229 216 235 270 307 273 231 212 210 217 227 242 251 245 229 233 238 229 221 201 212 220 227 231 230 226 220 219 221 225 226 224
202 206 205 206 209 217 214 224 215 229 229 238 236 227 229 235 249 264 262 250 240 234 233 243 249 246 239 240 239 207 187 203 213 220 226 228 228 225 223 224 227 229 228
202 205 207 209 214 220 215 220 222 224 238 244 251 245 241 242 245 250 261 261 262 259 256 257 257 251 241 238 225 141 176 196 205 209 214 219 224 227 225 224 225 226 226
204 199 208 210 217 218 220 222 222 230 226 230 239 248 250 252 261 260 265 267 269 258 241 245 246 250 247 244 203 155 174 182 193 199 207 214 220 221 220 219 222 223 223
218 200 207 214 220 220 221 219 228 224 222 224 232 241 249 251 252 251 255 266 266 258 240 243 250 247 255 246 143 206 187 174 186 196 203 209 212 210 207 209 214 217 217
218 208 211 214 218 220 224 223 232 229 223 225 228 224 235 240 242 249 250 251 262 269 260 228 235 239 238 239 181 224 214 170 182 194 198 199 198 193 189 188 189 189 187
219 218 217 214 215 217 220 224 229 225 228 229 236 243 243 244 243 245 246 244 247 259 269 265 235 253 258 255 196 231 215 163 184 192 196 195 195 193 190 187 187 183 177
213 216 220 221 221 220 220 219 230 226 227 229 231 232 235 243 242 242 242 241 240 243 252 256 246 233 237 255 240 237 223 214 191 184 189 190 191 193 193 191 189 186 184
215 213 216 218 222 222 222 221 227 228 230 231 231 234 237 232 230 243 244 246 246 245 245 249 243 232 228 230 231 240 236 227 224 170 181 187 191 194 193 194 193 192 194
212 216 216 218 222 223 223 224 227 231 235 237 237 233 235 235 234 233 239 244 243 240 239 244 243 237 236 222 222 230 234 239 241 180 180 189 192 193 191 192 193 195 198
212 218 219 222 225 227 228 228 228 232 239 243 244 241 241 235 234 235 235 240 246 248 240 243 245 237 233 224 227 235 232 221 240 232 208 200 187 190 193 191 193 196 198
210 214 218 219 223 224 227 232 230 224 226 237 242 244 246 245 253 253 255 242 239 242 240 237 238 239 234 227 230 238 245 240 232 243 235 216 201 207 197 194 196 199 198
208 209 213 218 223 225 184 236 243 237 229 237 242 245 237 223 219 216 240 260 263 251 250 247 241 239 241 238 245 250 249 249 247 232 247 244 229 228 218 212 181 185 192
201 203 210 216 219 213 187 206 219 233 234 239 241 247 251 234 224 228 215 214 226 244 256 261 257 251 242 238 241 244 248 261 269 259 248 250 235 237 230 191 165 177 185
202 204 211 219 221 210 184 204 222 229 233 233 236 240 246 254 251 252 244 238 233 227 231 238 249 252 251 252 241 248 251 248 256 250 243 257 249 249 244 202 166 178 185
202 209 204 215 225 215 178 195 228 229 227 234 239 244 245 244 255 259 245 245 245 241 222 220 238 245 251 245 250 247 244 246 251 245 233 252 255 253 244 226 180 179 182
205 216 210 212 222 223 169 186 229 237 229 235 228 226 211 234 240 254 244 242 246 254 252 228 220 223 227 221 220 236 246 249 255 251 218 241 246 247 249 232 212 188 192